This is the latest recevied weather packets stored in our database for station/object W1GK. If no packets are shown the sender has not sent any weather packets the latest 1 day(s).
| Time | Temp. | Humidity | Pressure | Rain* | Wind** | Luminosity | Snow |
|---|---|---|---|---|---|---|---|
| 1778055598 | 17.22° C | 33% | 1012.8 hPa | 0 mm | 1.79 m/s, 197° | 0 W/m² | - |
| 1778054997 | 17.22° C | 33% | 1012.9 hPa | 0 mm | 2.24 m/s, 129° | 0 W/m² | - |
| 1778054401 | 17.22° C | 32% | 1013 hPa | 0 mm | 2.24 m/s, 158° | 0 W/m² | - |
| 1778053800 | 17.22° C | 32% | 1013 hPa | 0 mm | 2.24 m/s, 186° | 0 W/m² | - |
| 1778053200 | 17.78° C | 32% | 1013 hPa | 0 mm | 1.79 m/s, 163° | 0 W/m² | - |
| 1778052600 | 17.78° C | 31% | 1013 hPa | 0 mm | 2.68 m/s, 187° | 0 W/m² | - |
| 1778052001 | 17.78° C | 28% | 1013 hPa | 0 mm | 2.24 m/s, 136° | 0 W/m² | - |
| 1778051402 | 17.78° C | 28% | 1013 hPa | 0 mm | 2.24 m/s, 128° | 0 W/m² | - |
| 1778050800 | 17.78° C | 27% | 1012.9 hPa | 0 mm | 1.79 m/s, 158° | 0 W/m² | - |
| 1778050201 | 17.78° C | 27% | 1012.8 hPa | 0 mm | 1.79 m/s, 159° | 0 W/m² | - |
| 1778049601 | 17.78° C | 27% | 1012.7 hPa | 0 mm | 2.24 m/s, 173° | 0 W/m² | - |
| 1778049000 | 17.78° C | 26% | 1012.6 hPa | 0 mm | 1.79 m/s, 187° | 0 W/m² | - |
| 1778048400 | 17.78° C | 27% | 1012.5 hPa | 0 mm | 1.79 m/s, 155° | 0 W/m² | - |
| 1778047800 | 17.78° C | 28% | 1012.4 hPa | 0 mm | 1.34 m/s, 142° | 0 W/m² | - |
| 1778047200 | 17.78° C | 29% | 1012.3 hPa | 0 mm | 1.34 m/s, 173° | 0 W/m² | - |
| 1778046600 | 17.78° C | 29% | 1012.3 hPa | 0 mm | 1.34 m/s, 143° | 0 W/m² | - |
| 1778046001 | 18.33° C | 29% | 1012.2 hPa | 0 mm | 0.89 m/s, 182° | 0 W/m² | - |
| 1778045400 | 18.33° C | 29% | 1012 hPa | 0 mm | 1.34 m/s, 161° | 0 W/m² | - |
| 1778044800 | 18.33° C | 29% | 1012 hPa | 0 mm | 0.89 m/s, 175° | 0 W/m² | - |
| 1778044199 | 18.33° C | 29% | 1011.9 hPa | 0 mm | 1.34 m/s, 138° | 0 W/m² | - |
| 1778043603 | 18.89° C | 28% | 1011.9 hPa | 0 mm | 0.89 m/s, 178° | 0 W/m² | - |
| 1778043001 | 18.89° C | 28% | 1011.7 hPa | 0 mm | 1.34 m/s, 165° | 0 W/m² | - |
| 1778042400 | 18.89° C | 28% | 1011.6 hPa | 0 mm | 1.79 m/s, 130° | 0 W/m² | - |
| 1778041802 | 19.44° C | 27% | 1011.6 hPa | 0 mm | 1.79 m/s, 140° | 0 W/m² | - |
| 1778041201 | 19.44° C | 27% | 1011.3 hPa | 0 mm | 1.34 m/s, 165° | 0 W/m² | - |
* Rain latest hour (hover to see other rain measurements)
** Current wind speed in m/s (hover to see current wind gust speed)